Regional Weather Roundup
Issued by NWS

Home | Current Version | Previous Version | Graphics & Text | Print | Product List | Glossary Off
Versions: 1 2 3 4 5 6 7 8 9 10 11 12 13 14 15 16 17 18 19 20 21 22 23 24 25 26 27 28 29 30 31 32 33 34 35 36 37 38 39 40 41 42 43 44 45 46 47 48 49 50

000
ASUS44 KFWD 140110
RWRTX
NORTH TEXAS HOURLY WEATHER ROUNDUP
NATIONAL WEATHER SERVICE FORT WORTH TX
700 PM CST WED DEC 13 2017

NOTE: "FAIR" INDICATES FEW OR NO CLOUDS BELOW 12,000 FEET WITH NO
SIGNIFICANT WEATHER AND/OR OBSTRUCTIONS TO VISIBILITY.

TXZ118-119-140200-
DALLAS/FORT WORTH METROPLEX

CITY           SKY/WX    TMP DP  RH WIND       PRES   REMARKS
DFW AIRPORT    PTCLDY    60  23  24 S9        29.85F
DALLAS LOVE    PTCLDY    62  28  27 S12       29.87S
FTW MEACHAM    CLEAR     63  22  20 CALM      29.87S
DAL-EXECUTIVE  CLEAR     62  28  27 S13       29.88R
FTW-ALLIANCE   PTCLDY    46  23  40 NW3       29.87S
FTW-NAS-JRB    CLEAR     58  21  24 VRB7      29.88R
FTW-SPINKS     CLEAR     61  23  23 S3        29.90R
ARLINGTON      CLEAR     60  24  25 S10       29.88S
GRAND PRAIRIE  CLEAR     62  24  23 S8        29.90R
MESQUITE       CLEAR     55  27  33 S12       29.89S
LANCASTER      CLEAR     58  29  32 S12       29.91R
$$

TXZ091>094-102>105-117-120-121-131>134-140200-
NORTH CENTRAL TEXAS

CITY           SKY/WX    TMP DP  RH WIND       PRES   REMARKS
SHRMAN/DENISON CLEAR     55  21  26 CALM      29.89R
GAINESVILLE    CLEAR     52  18  26 NW5       29.90S
BOWIE          CLEAR     53  19  26 CALM      29.89S
BRIDGEPORT     CLEAR     52  22  31 CALM      29.90S
DECATUR        CLEAR     58  19  21 NW6       29.88R
DENTON         CLEAR     56  21  25 CALM      29.87R
MCKINNEY       CLEAR     56  25  30 SE6       29.88R
BONHAM         CLEAR     57  21  24 CALM      29.88R
GREENVILLE     CLEAR     55  30  38 S8        29.89R
ROCKWALL       CLEAR     58  30  34 S12       29.89R
TERRELL        CLEAR     58  29  33 S12       29.90R
WAXAHACHIE     CLEAR     56  32  39 S10       29.91R
CLEBURNE       CLEAR     57  28  33 S12       29.92R
GRANBURY       CLEAR     61  24  24 SW5       29.90S
$$

TXZ083>090-098>101-113>116-127>130-139>142-154-155-140200-
WESTERN NORTH TEXAS

CITY           SKY/WX    TMP DP  RH WIND       PRES   REMARKS
WICHITA FALLS  CLEAR     51  22  31 N9        29.90R
WF-KICKAPOO    CLEAR     54  22  29 CALM      29.92R
VERNON         CLEAR     56  16  21 N6        29.93R
ABILENE        CLEAR     55  24  30 SE5       29.91S
ABILENE-DYESS  CLEAR     52  22  31 W3        29.90S
GRAHAM           N/A     52  22  30 CALM      29.88S
BRECKENRIDGE   CLEAR     59  14  17 S5        29.90R
CISCO          CLEAR     59  23  25 SW9       29.91S
EASTLAND       CLEAR     42  20  41 CALM      29.90S
RANGER         CLEAR     58  24  27 SW6       29.90F
MINERAL WELLS  CLEAR     61  17  18 SW3       29.87S
STEPHENVILLE   CLEAR     61  22  22 CALM      29.93S
COMANCHE       CLEAR     60  28  29 SW6       29.92S
BROWNWOOD      CLEAR     52  23  32 CALM      29.92R
COLEMAN        CLEAR     56  25  29 SW6       29.92S
$$

TXZ143>147-156>162-174-175-140200-
CENTRAL TEXAS

CITY           SKY/WX    TMP DP  RH WIND       PRES   REMARKS
WACO           CLEAR     53  36  52 S12       29.93S
WACO-TSTC      CLEAR     54  30  40 S10       29.94S
WACO-MCGREGOR  CLEAR     51  34  52 S10       29.93F
HILLSBORO      CLEAR     54  32  43 S9        29.91S
CORSICANA      CLEAR     53  31  42 S12       29.94S
MEXIA          CLOUDY    48  30  50 S7        29.94S
HEARNE         CLOUDY    50  35  57 SE3       29.99S
CAMERON        CLOUDY    51  34  52 S7        29.97R
TEMPLE         CLOUDY    52  35  52 S13       29.95S
KILLEEN        CLOUDY    50  35  54 S7        29.93F
KILLEEN-SKYLRK CLOUDY    51  36  56 S9        29.94F
FORT HOOD      CLOUDY    54  35  49 S8        29.90F
GATESVILLE     CLEAR     55  34  44 S8        29.94S
HAMILTON       CLEAR     53  29  39 S8        29.92S
LAMPASAS       CLEAR     53  31  44 CALM      29.93S
$$

TXZ095>097-106>112-122>126-135>138-148>153-164>167-140200-
EAST TEXAS

CITY           SKY/WX    TMP DP  RH WIND       PRES   REMARKS
PARIS          CLEAR     55  27  34 SW7       29.88R
SULPHUR SPRNGS CLEAR     56  29  36 SW8       29.91R
MOUNT PLEASANT CLEAR     55  29  36 S7        29.91R
GILMER         CLEAR     56  30  37 S6        29.91R
MINEOLA        CLEAR     57  30  35 S7        29.90S
TYLER          CLEAR     54  31  41 S14       29.92R
LONGVIEW       CLEAR     54  34  46 S14       29.91S
MARSHALL       CLEAR     53  29  40 SW6       29.94R
ATHENS         CLEAR     52  30  43 S6        29.93R
PALESTINE      CLOUDY    51  33  49 S6        29.97S
JACKSONVILLE   CLOUDY    51  33  51 S9        29.96S
HENDERSON      CLOUDY    52  32  46 S3        29.95S
CENTER         CLOUDY    50  32  48 S6        29.96F
NACOGDOCHES    CLOUDY    47  35  63 S7        29.98S
LUFKIN         CLOUDY    45  36  70 SE3       29.98F
$$

SUPPLEMENTAL OBSERVATIONS (NWS FORT WORTH AREA)

CITY           SKY/WX    TMP DP  RH WIND       PRES   REMARKS
LBJ GRASSLAND    N/A     57  19  23 N5          N/A
POSSUM KINGDOM   N/A     63  16  16 W5          N/A
GRANBURY         N/A     61  23  23 SW6         N/A
MCGREGOR         N/A     52  32  46 S7          N/A
TEMPLE           N/A     54  34  47 S6          N/A
$$

SUPPLEMENTAL OBSERVATIONS (NWS NORMAN AREA)

CITY           SKY/WX    TMP DP  RH WIND       PRES   REMARKS
GOODLETT         N/A     57  20  24 NE6       29.93R
ODELL            N/A     49  22  34 NE7       29.93S
CROWELL          N/A     54  20  26 NE5       29.93S
KNOX CITY        N/A     51  15  24 N5        29.93S
SEYMOUR          N/A     46  19  34 NE3       29.92R
MILLERS CREEK    N/A     52  23  32 NE2         N/A
$$

SUPPLEMENTAL OBSERVATIONS (NWS SAN ANGELO AREA)

CITY           SKY/WX    TMP DP  RH WIND       PRES   REMARKS
WEINERT          N/A     48  17  29 NE3       29.93R
HASKELL          N/A     50  14  24 N9        29.92R
THROCKMORTON     N/A     53  26  35 NW2       29.92S
STAMFORD         N/A     59  19  20 W5        29.92R
CLYDE            N/A     56  24  29 S7        29.92F
HAMBY            N/A     46  19  34 E1          N/A
$$

SUPPLEMENTAL OBSERVATIONS (NWS SHREVEPORT AREA)

CITY           SKY/WX    TMP DP  RH WIND       PRES   REMARKS
TEXARKANA        N/A     50  28  43 CALM        N/A
LINDEN           N/A     54  30  40 S1          N/A
N SABINE NF      N/A     52  34  50 MISG        N/A
$$

SUPPLEMENTAL OBSERVATIONS ARE A COLLECTION OF AUTOMATED INSTRUMENTS
THAT ARE MAINTAINED BY A VARIETY OF FEDERAL AND STATE AGENCIES.
CERTAIN ELEMENTS...SUCH AS HUMIDITY VALUES AND SUSTAINED WIND
SPEEDS...MAY BE APPROXIMATED.




USA.gov is the U.S. government's official web portal to all federal, state and local government web resources and services.